View from above orbital plane
|
View from above satellite
|
Ground track
|
The orbit data is extracted from the following two-line orbital elements,
1 00045U 60007A 21016.56291154 -.00000059 00000-0 12098-4 0 9994
2 00045 66.6933 179.2688 0253273 162.1015 198.9213 14.33702088 96388
Epoch (UTC): | 16 January 2021 13:30:35 |
Eccentricity: | 0.0253273 |
inclination: | 66.6933° |
perigee height: | 598 km |
apogee height: | 960 km |
right ascension of ascending node: | 179.2688° |
argument of perigee: | 162.1015° |
revolutions per day: | 14.33702088 |
mean anomaly at epoch: | 198.9213° |
orbit number at epoch: | 9638 |
The dashed part of the orbit path shows where the satellite is in the earth's shadow,
|
|